Location: Hilton Head Island
(32.2163°N, 80.7526°W)
Time: 15:31:13
(UTC-05:00)

Explorer 11/Cluster Stage 4 - Pass Details

Date: 18 February 2026
Orbit: 463 x 1176 km, 28.8° (Epoch: 6 March)

Event Time Altitude Azimuth Distance (km) Brightness Sun altitude
Rises 18:28:44 0° 258° (WSW) 2,490 12.4 -4.3°
Reaches altitude 10° 18:32:01 10° 226° (SW) 1,668 9.3 -5.0°
Maximum altitude 18:33:31 12° 202° (SSW) 1,581 8.6 -5.3°
Drops below altitude 10° 18:35:05 10° 178° (S) 1,749 8.5 -5.7°
Sets 18:38:46 0° 147° (SSE) 2,778 9.2 -6.4°
